Theta_e
322 322 323 323 324 324 325 326 326 325 326 327 328 330 332 332 331 330 330 330 329 330 329 328 328 328 328 330 330 329 327 320 319 318 316 319 327 334 333 334 337 333 327 313 314 314 308 309 310 312 311 311 307 308 310 305 304 302 296 291 292 291 291 294 294 293 296 295 295 295 294 302 300 298 302 306 305 305 308 310 310 313 314 314 315 316 324 328
321 322 323 323 324 324 324 325 325 325 325 328 328 326 329 331 331 331 330 329 329 329 329 329 329 329 330 331 330 329 323 319 315 315 316 327 328 334 333 337 335 330 321 314 314 310 308 307 309 312 310 305 308 310 310 305 304 295 292 293 293 291 295 295 295 294 295 295 294 293 293 301 302 298 300 302 299 306 307 308 309 313 314 318 319 322 324 327
321 321 322 323 324 323 323 323 325 324 325 326 326 326 325 330 331 330 329 329 328 328 328 329 329 330 330 330 329 327 321 316 315 310 316 329 330 330 332 335 333 329 314 311 309 312 312 309 308 309 305 303 304 306 305 304 303 298 296 292 291 295 294 294 295 296 294 294 294 294 295 297 300 299 300 301 299 303 304 304 306 309 311 314 317 321 324 326
320 321 322 322 323 323 324 325 325 325 325 325 326 325 325 327 331 330 329 329 328 329 329 328 329 329 329 329 328 323 319 313 308 312 321 331 331 330 332 334 333 326 307 307 307 307 308 308 307 307 303 302 303 304 303 302 301 298 296 292 294 294 294 295 293 294 293 293 294 293 293 296 297 298 300 298 301 301 303 305 307 308 311 314 317 321 323 325
319 320 321 322 322 323 323 324 325 325 324 323 325 325 326 327 329 330 330 329 329 329 329 329 329 329 328 328 326 321 313 304 306 316 323 332 332 332 333 333 333 316 308 307 309 308 309 307 306 304 303 299 301 300 300 300 299 296 294 297 296 294 295 295 293 293 292 291 293 292 296 296 297 298 299 300 299 299 302 306 306 308 312 316 317 320 323 324
319 320 320 321 322 322 323 323 324 324 325 324 325 326 325 323 328 329 330 330 329 329 329 329 329 328 328 327 322 318 309 291 312 314 330 333 332 332 332 334 332 308 310 309 306 306 308 305 305 302 299 297 298 302 299 297 299 295 294 299 297 293 295 295 293 292 291 294 294 294 295 295 298 297 297 300 301 300 299 299 306 307 314 318 321 321 322 323
319 320 320 321 321 322 322 323 323 323 324 324 325 327 325 324 325 329 328 329 330 329 329 329 329 328 328 325 320 316 307 308 310 315 330 333 333 332 334 334 325 311 310 306 306 306 303 302 302 299 299 296 298 296 298 298 298 296 294 299 298 293 294 293 295 292 291 292 293 294 296 297 296 297 296 299 302 297 299 302 299 308 317 320 319 320 322 323
320 320 320 320 321 322 321 322 322 323 324 325 326 327 324 322 323 328 328 329 329 329 329 329 328 328 327 320 313 309 308 307 312 312 330 331 330 333 332 319 310 311 311 308 305 304 302 301 301 299 297 298 297 297 298 296 297 297 296 298 297 294 294 294 293 291 290 291 292 295 297 295 295 296 295 298 302 299 310 311 311 315 317 319 319 319 321 322
319 319 319 319 320 321 322 322 321 322 323 324 326 326 325 325 324 327 328 328 329 329 329 329 328 328 327 319 311 305 305 316 312 316 326 326 324 329 317 309 309 309 309 307 307 305 304 299 300 301 297 298 301 297 298 295 294 298 299 298 295 295 295 296 293 290 289 291 292 295 294 293 292 295 295 299 297 299 312 313 314 315 316 317 318 319 320 321
318 319 319 319 320 321 321 321 321 322 323 323 324 324 324 322 320 320 326 328 328 328 328 327 327 327 322 315 311 301 310 319 316 324 326 324 325 323 317 312 309 310 307 305 305 305 304 301 302 303 302 299 300 297 297 296 295 298 298 298 297 297 296 296 294 293 290 292 292 296 294 295 293 295 296 296 295 304 311 311 310 314 315 316 317 319 320 321
317 318 319 319 319 320 321 321 321 322 322 323 324 323 322 321 320 317 315 325 328 328 328 327 326 325 317 316 306 301 314 319 319 324 326 324 323 318 316 309 309 311 310 305 305 306 305 305 305 306 306 299 299 297 295 296 296 294 295 294 295 294 295 295 294 293 293 295 290 295 293 293 293 295 297 298 301 308 307 310 311 311 314 316 317 318 320 320
316 317 318 319 319 319 319 320 321 321 321 322 323 324 323 321 319 317 315 314 326 327 328 328 326 323 319 313 308 306 310 316 322 325 325 323 319 318 315 310 311 312 310 305 305 307 308 308 308 306 302 302 296 296 297 300 295 293 294 293 293 294 297 294 295 295 292 295 291 292 293 292 294 293 298 294 300 305 307 310 311 311 312 314 316 317 318 320
315 315 317 318 319 319 319 320 320 321 321 320 322 324 323 321 320 320 317 314 320 327 327 328 324 321 316 305 310 314 315 320 323 324 322 319 313 311 309 308 310 311 312 310 306 306 308 309 308 303 304 301 297 296 299 298 296 295 295 292 293 291 292 294 294 294 293 294 290 292 290 289 292 297 294 293 300 305 306 308 311 311 311 312 314 316 318 319
314 315 317 317 319 319 319 319 320 320 320 319 320 322 323 323 321 319 317 317 319 325 327 327 323 318 313 308 315 316 318 321 321 321 317 310 311 304 306 308 309 309 312 311 307 306 308 307 309 305 305 301 297 302 298 295 293 294 294 293 291 291 289 293 293 294 294 294 291 294 289 288 291 294 294 297 299 303 303 306 309 310 310 311 312 314 316 317
313 316 316 317 318 318 319 319 319 319 319 319 319 320 322 322 324 321 319 318 320 324 327 326 321 314 307 310 317 315 326 321 318 317 314 310 306 303 303 306 305 306 305 307 305 307 307 308 307 303 298 298 300 296 291 289 289 289 293 290 289 290 289 292 293 292 295 293 292 294 288 290 295 297 291 288 296 298 299 301 307 309 310 311 312 313 315 317
314 315 315 316 317 317 318 319 319 319 319 319 318 321 321 322 322 323 322 320 318 318 325 319 316 314 308 304 312 325 319 314 315 317 313 314 309 308 303 302 302 304 307 303 305 306 307 309 305 299 297 299 296 293 291 291 289 287 292 286 287 287 290 293 295 290 294 292 294 293 290 288 294 293 291 291 299 300 298 296 300 305 308 310 311 313 314 315
313 314 315 316 316 317 317 318 318 319 318 318 318 318 321 321 320 320 319 318 317 316 315 314 316 315 301 311 319 313 311 314 311 311 309 310 313 304 303 303 300 300 302 302 303 305 304 304 298 299 298 295 293 295 291 286 285 289 285 285 286 289 289 290 292 292 292 292 292 291 290 288 294 295 295 290 298 299 298 299 297 299 304 308 310 311 312 313
313 313 315 316 315 316 317 317 318 318 319 318 318 315 315 320 320 318 317 316 313 314 311 312 316 309 305 307 304 307 315 310 312 311 309 306 304 305 306 299 297 302 302 300 303 302 301 298 297 295 294 295 294 295 292 287 287 285 287 286 287 285 288 291 293 293 291 289 291 289 288 290 293 294 294 293 297 298 297 298 298 298 300 304 307 309 311 312
312 313 314 314 315 316 316 317 316 318 318 318 317 317 316 317 315 315 310 308 304 300 296 300 305 296 294 303 309 311 313 313 313 311 305 303 303 305 302 301 303 302 299 298 297 299 297 296 298 293 292 292 293 296 295 291 292 291 290 291 288 288 287 288 291 289 291 289 289 288 289 290 292 294 295 291 293 296 296 296 297 297 297 300 304 307 309 311
311 313 313 314 315 316 316 315 315 315 316 314 312 311 308 303 303 301 307 306 301 300 300 306 310 310 307 308 308 312 314 316 309 307 307 303 305 303 302 303 302 303 299 298 296 297 298 293 291 291 294 294 296 297 297 294 295 292 289 286 286 287 286 287 287 288 289 289 287 288 288 289 291 293 295 291 290 291 291 292 294 296 297 297 299 303 306 308
311 311 312 314 315 315 315 314 314 315 315 308 309 305 297 298 293 291 298 301 304 304 302 303 304 303 301 308 309 311 308 306 310 308 308 306 306 305 299 302 299 296 298 300 295 295 296 292 293 294 294 294 295 294 292 292 292 291 288 287 285 286 287 286 290 289 288 290 285 285 286 288 290 293 294 291 289 292 292 292 292 293 294 296 296 297 301 305
312 312 313 312 315 314 314 313 314 315 314 308 307 302 305 305 307 311 303 294 300 303 302 302 305 302 309 311 313 315 312 304 304 306 310 306 305 304 299 300 298 296 297 294 294 291 291 291 294 293 294 293 291 291 293 292 290 288 288 286 286 285 285 286 285 287 288 289 287 284 287 288 289 291 292 291 292 294 294 294 295 295 294 294 295 295 297 298
311 312 312 314 314 313 313 313 314 313 307 306 304 304 303 309 311 311 305 302 299 303 301 301 299 301 302 311 312 316 306 303 301 303 306 305 302 304 299 298 297 297 293 295 292 291 288 291 293 293 293 292 289 289 291 290 290 288 284 285 287 285 287 287 287 288 288 287 286 285 284 287 288 289 290 292 292 293 294 294 294 294 295 295 296 297 296 296
311 312 312 312 313 312 312 311 310 307 302 305 306 305 308 310 311 310 306 295 292 301 302 302 303 302 301 302 311 311 306 305 305 301 309 304 299 300 300 299 297 294 291 294 295 293 290 293 293 292 293 293 290 288 290 289 287 287 288 285 283 284 285 288 288 286 284 286 286 286 286 288 288 290 291 291 289 291 293 292 291 292 293 296 296 295 296 296
310 311 311 313 311 313 312 312 304 301 302 305 304 307 310 310 310 309 301 295 296 296 307 306 306 305 306 312 312 307 308 307 307 307 306 305 301 299 298 302 298 293 294 295 294 291 289 293 292 291 290 291 290 287 288 289 284 285 285 287 286 284 285 285 285 286 283 285 284 287 283 285 284 286 289 292 289 289 289 291 292 293 293 293 293 295 296 296
310 310 310 311 312 311 311 301 298 301 302 300 304 309 310 309 309 307 301 288 282 292 301 292 308 300 313 304 309 309 309 301 304 308 305 305 305 302 300 297 296 293 294 295 294 292 290 287 292 290 290 289 290 290 288 291 286 285 286 286 286 286 285 284 285 286 281 280 284 284 285 281 282 285 287 288 288 289 290 289 291 292 293 292 293 295 295 296
309 309 310 310 311 311 299 291 300 303 297 297 306 310 310 311 309 305 293 284 280 294 289 301 301 302 309 307 307 309 292 295 304 308 304 308 304 305 298 295 290 291 295 294 291 290 287 285 288 289 289 288 287 288 288 291 287 285 286 287 285 285 285 284 283 284 281 282 285 283 283 279 282 288 289 286 285 287 288 289 289 291 292 292 293 295 295 296
308 309 309 310 310 309 298 300 300 297 296 303 309 310 310 310 308 303 290 275 275 298 292 297 302 312 308 309 310 303 301 304 297 301 306 304 305 300 299 294 294 293 292 294 289 288 290 285 288 287 289 288 288 290 288 292 289 285 286 288 286 287 285 284 285 282 283 283 281 281 284 281 278 282 283 287 289 289 290 290 290 290 292 293 293 294 295 296
308 308 308 309 309 309 302 298 298 295 299 305 309 309 310 308 304 294 282 274 293 291 309 297 313 306 305 308 304 302 300 305 298 302 304 303 301 299 296 296 296 294 289 294 295 285 288 290 290 291 290 289 287 287 289 292 289 286 286 289 289 288 288 288 284 286 281 280 278 281 282 280 281 281 284 283 285 288 290 291 292 291 291 293 294 294 295 295
307 308 308 308 306 302 301 300 297 300 303 305 309 309 306 305 296 284 278 271 293 283 298 298 300 295 304 298 299 299 298 299 298 299 302 300 300 298 293 297 294 292 290 289 287 286 287 290 292 289 290 288 285 283 286 291 287 287 289 289 288 287 285 284 283 280 280 274 277 282 281 282 278 282 286 286 286 289 290 289 289 289 289 290 290 292 295 294
307 307 308 307 300 302 300 296 298 302 304 306 306 304 302 296 284 278 274 282 293 290 300 297 293 303 297 295 291 296 299 296 297 299 294 298 293 294 296 293 292 289 286 287 286 285 286 286 289 287 286 284 288 286 284 285 289 290 285 286 288 286 285 284 282 283 276 272 274 277 280 282 278 280 282 288 285 284 290 291 293 293 293 292 291 291 291 290
306 306 307 305 304 303 296 293 300 303 304 306 304 299 294 280 283 275 275 295 283 288 290 291 299 297 296 298 292 293 293 295 297 296 293 292 290 291 294 289 290 283 284 286 285 284 284 284 283 286 288 290 286 286 283 284 288 289 287 288 286 281 283 279 280 277 277 275 278 277 278 280 281 284 284 284 285 287 285 289 291 293 294 293 291 289 289 290
306 305 307 305 305 300 300 300 302 304 305 305 301 298 286 279 271 278 283 284 280 294 290 298 295 296 296 293 286 293 296 290 297 296 296 294 291 292 296 293 294 289 283 287 282 281 280 281 283 285 287 287 291 287 281 282 285 285 286 285 284 279 278 277 276 270 271 276 278 280 279 278 282 283 288 291 292 290 289 287 289 289 290 291 291 291 289 290
305 305 301 303 302 303 302 301 302 304 304 301 295 286 283 275 274 287 282 285 284 291 297 294 296 296 295 288 288 292 287 292 295 295 295 290 291 289 290 290 294 288 288 286 284 283 278 276 285 284 283 285 289 291 288 286 284 287 286 289 287 285 279 276 275 276 276 276 276 277 277 277 278 285 285 288 290 288 286 286 286 286 288 289 288 288 288 289
305 302 299 298 300 302 303 303 302 302 300 297 289 283 275 275 282 279 280 284 287 291 292 297 293 293 290 291 291 293 293 287 295 294 292 289 287 290 289 290 292 289 289 286 283 281 285 282 282 284 284 285 289 286 286 286 286 284 283 284 282 285 281 275 270 272 270 273 272 274 279 280 283 285 287 287 286 286 287 288 287 289 289 288 288 289 290 290
302 296 299 296 298 300 302 303 302 300 298 291 284 278 276 281 278 284 282 290 292 289 289 295 294 290 288 287 291 290 293 290 292 292 289 290 291 290 293 292 291 291 290 289 285 283 282 280 282 283 283 284 287 286 287 290 283 284 283 283 284 283 280 274 273 274 273 272 276 273 278 281 282 287 293 289 285 287 286 285 286 288 288 286 289 292 292 290
295 297 294 296 297 301 302 303 302 299 296 288 281 276 282 283 289 287 293 288 290 293 289 285 287 287 285 284 285 288 288 293 291 290 284 291 289 292 291 290 293 290 294 291 282 281 284 279 282 282 283 285 282 284 288 284 284 283 278 284 285 284 283 279 275 268 267 272 274 273 280 280 281 282 284 285 287 290 289 290 286 285 284 286 290 291 291 290
295 295 295 295 297 301 302 302 300 297 291 285 278 282 287 283 291 290 293 293 294 293 288 287 287 293 286 286 285 286 290 288 287 289 286 289 286 297 292 292 293 292 293 289 288 283 286 278 282 282 282 285 285 287 286 287 284 288 285 287 287 280 280 279 273 270 268 269 269 270 274 275 280 285 283 284 286 290 290 289 288 288 287 288 288 288 288 287
295 293 287 294 300 302 301 303 299 293 287 280 279 280 285 286 292 290 293 295 293 292 287 289 286 288 290 287 287 288 290 286 288 286 286 288 286 293 293 295 290 293 291 289 286 284 283 278 278 283 283 285 285 286 282 283 286 285 285 285 284 283 280 276 279 273 277 269 267 272 267 281 281 282 285 287 283 286 289 287 287 288 288 288 288 288 287 288
291 288 286 297 300 301 302 300 294 289 283 278 281 282 288 285 289 293 294 295 291 291 288 289 290 287 289 289 290 286 290 290 288 288 290 290 289 296 294 296 291 290 291 287 285 287 282 282 274 281 283 283 281 284 284 285 281 281 283 282 284 279 281 281 278 275 277 267 267 267 272 277 280 282 287 292 293 290 287 288 288 288 287 286 285 286 287 287
293 287 288 298 299 301 300 294 285 282 281 284 285 284 285 285 289 291 294 294 293 297 293 291 290 289 289 288 288 292 289 290 290 287 289 289 291 285 294 295 292 289 288 288 289 285 281 282 278 279 280 280 280 282 282 285 286 283 284 283 284 280 278 280 279 277 270 273 268 265 276 274 280 281 288 289 291 291 288 288 288 288 287 287 286 286 286 287
288 280 285 298 300 300 293 284 284 287 284 281 281 285 284 292 289 290 292 293 293 292 295 294 294 291 291 290 291 291 290 289 290 289 290 288 292 290 292 296 292 292 292 287 288 284 282 279 282 275 278 281 284 283 281 280 284 283 285 284 285 282 279 276 277 277 274 274 272 269 269 277 283 283 286 289 288 286 282 284 289 286 284 284 285 285 285 286
286 284 296 298 300 297 289 283 286 284 282 285 289 288 289 289 289 291 290 293 289 291 292 292 292 291 291 292 291 291 292 288 290 289 291 291 292 291 288 294 293 292 292 283 289 286 289 280 278 278 281 279 282 282 282 282 285 285 284 283 283 284 283 280 276 276 280 272 274 271 270 278 281 281 281 282 281 282 283 283 286 285 286 286 285 286 285 285
288 287 288 297 300 296 287 278 279 281 283 286 286 286 289 288 289 289 289 292 291 290 290 291 294 295 292 294 293 290 293 286 291 290 288 288 290 288 292 292 294 291 292 289 291 290 283 280 282 274 272 276 279 279 282 283 284 282 283 282 283 284 280 274 273 273 275 277 277 275 275 281 283 280 280 282 283 286 285 283 283 286 286 285 286 285 285 285
288 290 288 291 297 295 284 286 284 283 283 283 283 283 285 287 290 292 291 290 294 292 291 291 294 296 294 294 292 294 294 292 288 291 287 286 288 286 291 291 295 293 290 291 295 288 282 282 282 277 274 273 272 275 277 280 281 280 275 280 282 284 280 280 279 274 275 275 279 275 280 284 282 280 283 284 282 284 283 282 281 283 286 286 286 285 285 284
283 277 286 286 290 290 289 293 289 286 284 283 282 283 285 284 289 293 293 291 294 294 293 294 296 297 293 293 291 290 291 291 290 287 287 285 283 286 289 292 294 292 292 295 293 288 279 283 284 283 282 280 280 278 282 284 282 281 281 282 281 281 282 282 278 274 279 277 277 282 284 282 283 284 284 285 283 285 284 284 284 285 284 284 283 284 284 284
289 280 282 278 286 286 285 288 286 287 284 287 281 285 282 285 287 290 295 288 293 293 293 294 293 292 291 292 290 290 292 289 288 288 285 284 283 285 289 292 293 292 294 293 293 285 279 282 284 284 284 284 279 277 284 287 283 283 281 282 282 282 282 283 281 282 282 278 277 284 285 282 284 282 281 283 284 285 283 282 282 282 283 284 285 283 285 285
279 284 286 288 282 280 281 283 286 286 288 288 284 287 284 284 286 285 291 292 294 294 290 291 293 294 294 292 292 288 290 287 289 287 286 285 284 286 288 289 291 292 294 291 293 290 285 284 283 283 282 280 280 284 285 286 285 284 284 283 282 283 284 284 284 286 284 283 281 285 284 283 284 286 287 285 286 286 285 285 283 283 283 283 284 284 284 285
286 287 287 290 282 285 286 286 288 286 286 287 286 286 284 284 284 288 289 289 291 291 293 286 290 293 294 295 293 289 290 285 285 288 286 285 286 286 285 286 289 292 293 288 291 287 288 281 282 284 280 280 280 283 283 284 283 283 284 284 285 284 284 286 286 287 286 285 287 282 282 284 284 286 286 287 284 284 281 280 282 283 285 285 284 283 285 285
282 282 281 288 287 285 286 289 288 287 284 288 284 286 286 285 285 288 291 290 287 289 294 290 290 293 294 295 294 291 291 292 291 287 289 288 286 288 287 289 288 290 292 288 289 286 291 280 286 281 279 278 279 281 281 282 283 282 283 284 285 285 286 286 287 287 286 286 287 285 282 283 284 283 285 284 281 281 283 285 286 287 285 285 284 284 285 286
288 290 289 285 281 284 286 286 287 286 284 286 285 286 287 287 286 289 290 294 292 290 292 290 292 293 295 294 294 294 296 295 295 293 292 292 286 290 288 287 291 287 289 288 289 284 289 279 283 282 280 274 276 278 277 279 280 281 282 283 283 284 283 285 284 286 284 284 285 284 282 284 283 284 283 283 283 284 287 287 286 288 288 285 284 285 286 286
290 291 291 288 281 287 284 286 287 287 282 287 287 287 287 287 289 291 288 293 294 295 295 294 294 294 293 293 293 295 298 298 294 294 295 292 290 286 287 289 292 290 288 287 283 286 285 280 280 280 280 272 275 276 279 280 280 279 281 284 285 285 286 285 286 287 288 288 284 282 284 286 287 288 287 286 284 287 287 287 289 289 288 285 286 287 287 287
Wind_Speed
12 11 13 13 12 11 13 13 12 10 11 9 8 9 20 21 21 21 21 20 19 19 20 19 19 18 16 13 12 10 7 4 2 2 3 5 2 2 4 2 9 9 7 6 5 7 3 3 5 0 4 3 2 2 0 3 1 1 2 5 1 3 4 5 5 8 1 1 2 1 3 0 4 0 0 0 4 4 1 2 3 1 2 2 3 3 7 12
12 10 11 12 12 10 10 11 12 11 11 10 9 4 9 24 21 22 21 22 20 18 19 19 19 18 17 14 14 11 6 2 7 7 13 3 6 8 4 1 7 10 9 7 10 5 9 3 3 3 5 3 3 1 1 1 1 3 2 3 6 5 2 3 1 5 1 1 1 1 2 3 2 5 2 2 1 1 2 3 1 1 2 4 3 8 11 14
11 11 10 12 13 12 12 13 13 14 11 10 7 5 7 14 23 22 20 19 20 19 20 19 19 18 18 16 13 11 6 1 4 16 15 9 5 8 7 3 8 9 6 7 4 10 11 11 8 5 3 5 4 3 1 1 1 2 5 4 3 7 3 4 3 1 5 2 1 1 0 2 3 4 2 2 2 0 7 6 2 5 7 6 5 8 12 13
12 11 11 10 11 12 12 12 13 12 10 10 9 6 5 6 20 21 21 21 20 19 19 20 19 18 17 16 15 8 6 4 11 12 6 12 11 10 9 7 7 5 6 5 6 5 5 6 5 6 3 4 1 1 4 1 1 1 2 5 5 5 2 2 4 5 3 4 1 1 0 2 3 4 3 4 4 6 8 8 12 14 12 10 10 12 12 13
13 11 10 9 9 9 10 11 12 12 12 13 10 9 6 2 13 21 21 20 19 18 18 18 18 18 18 16 14 9 8 2 10 11 9 17 15 11 10 9 8 6 2 7 9 6 8 7 5 4 4 2 1 2 1 0 1 4 1 3 6 5 1 2 4 3 1 2 1 1 1 3 1 2 4 10 8 9 9 8 9 6 8 13 13 14 12 14
13 11 9 9 8 8 9 9 9 11 12 9 9 9 6 2 8 22 21 20 19 18 17 17 18 18 18 18 10 9 12 12 1 6 20 21 20 18 14 11 7 5 8 5 4 6 10 2 5 3 2 3 6 8 2 1 1 4 1 1 2 3 2 2 3 3 1 0 1 1 3 3 4 2 4 7 13 2 2 4 7 7 9 9 11 14 14 14
12 9 8 7 7 7 7 6 7 7 9 10 9 8 7 5 4 14 19 21 22 19 21 20 19 19 19 16 8 12 19 7 1 7 18 23 22 22 15 11 9 4 6 6 7 6 5 6 3 3 5 4 1 2 3 2 2 3 6 5 6 5 3 4 2 3 1 5 3 2 1 2 3 4 1 7 8 2 4 5 6 6 11 12 14 15 18 18
11 10 8 7 6 5 6 5 4 5 7 9 9 8 7 7 6 11 17 17 19 21 21 21 20 19 20 11 10 7 10 11 4 6 15 20 18 16 16 11 10 7 7 10 11 8 7 8 7 3 3 8 5 7 3 6 1 5 3 6 2 3 4 3 3 3 2 6 2 0 1 2 6 3 2 9 8 3 3 4 5 8 10 10 12 15 14 14
11 9 8 7 5 5 4 5 4 3 5 8 8 8 9 7 4 9 17 18 19 19 18 20 22 20 19 8 9 10 14 15 4 3 9 17 15 12 12 8 8 12 7 6 7 9 10 5 4 4 5 2 2 7 4 6 3 4 4 5 4 3 3 1 0 1 4 1 3 3 4 4 5 2 4 11 3 6 4 6 6 7 9 12 14 15 15 15
11 10 8 7 7 6 5 5 5 4 6 8 9 9 9 8 7 5 7 15 17 18 18 17 18 23 16 11 7 14 9 11 2 5 8 12 16 15 16 11 10 11 8 7 6 8 7 6 7 5 10 3 2 3 3 1 2 4 4 5 5 2 1 1 1 2 2 2 4 3 0 0 1 1 6 1 4 5 4 6 4 8 11 11 10 11 12 14
13 10 9 7 6 6 6 5 4 4 3 5 8 10 10 10 11 7 5 10 17 17 18 19 19 17 14 12 14 17 3 11 1 6 14 13 13 14 14 10 11 8 9 5 7 9 4 9 5 5 1 3 4 1 1 2 2 5 7 2 0 4 2 1 0 1 1 0 3 3 0 1 1 1 7 2 2 3 8 6 7 7 8 9 9 10 9 9
13 12 9 8 7 7 6 6 5 3 4 2 6 10 10 12 11 11 7 6 12 19 17 18 24 13 9 12 13 9 3 2 5 7 11 16 13 14 10 8 10 9 11 10 8 3 6 7 7 2 3 3 3 2 2 3 2 3 3 3 2 2 2 1 1 1 1 0 3 3 1 1 1 6 3 0 1 3 5 6 5 7 6 8 8 8 8 10
13 12 9 8 8 7 6 6 5 5 4 1 1 4 9 11 13 13 11 6 10 17 21 20 17 9 9 14 12 5 1 1 6 10 8 7 6 5 7 6 7 7 10 11 7 4 3 8 5 8 2 5 5 2 2 4 1 3 4 2 1 2 2 3 1 0 2 1 3 2 5 5 8 14 1 3 2 3 5 6 7 7 6 6 7 8 8 6
9 9 9 7 7 8 6 5 6 6 6 2 1 2 6 9 12 13 14 11 6 15 19 21 13 9 9 6 3 5 3 4 4 12 10 8 12 4 6 3 4 3 2 6 4 4 5 1 5 7 2 6 3 2 5 2 3 2 1 3 1 2 4 2 2 1 4 3 4 1 4 5 6 9 5 1 2 6 8 8 8 7 6 6 7 7 8 9
6 6 6 6 6 7 7 6 5 6 7 5 3 3 3 6 11 13 14 14 11 10 19 19 11 11 9 4 3 3 9 5 8 6 11 12 11 5 5 5 4 3 3 4 5 2 4 7 8 4 2 1 7 4 3 3 4 1 4 3 2 4 5 5 3 4 5 0 3 3 2 7 8 8 3 3 2 3 6 6 7 7 7 7 7 8 8 10
9 7 7 6 5 5 7 6 5 6 7 7 4 3 1 5 8 10 9 7 8 8 8 13 11 8 5 9 3 5 4 6 6 7 6 17 12 11 8 7 5 5 6 3 2 3 3 4 4 5 5 2 5 7 5 4 2 5 3 0 3 1 5 4 1 2 1 3 1 6 5 2 4 1 2 1 4 1 4 6 5 6 5 6 7 8 8 7
10 9 8 6 6 5 6 6 4 4 6 7 3 2 5 5 9 11 12 7 0 3 4 2 15 12 8 0 2 8 6 4 4 4 2 2 13 13 12 9 4 5 7 5 3 5 0 3 1 3 1 4 4 7 7 1 2 1 1 3 5 7 3 3 4 0 1 2 3 1 3 6 4 4 2 2 5 4 6 8 6 7 7 7 6 7 8 9
10 10 9 7 7 5 4 5 5 4 6 9 5 5 2 12 14 14 9 6 4 1 4 6 8 10 4 2 12 14 10 6 6 7 4 1 9 13 13 6 4 10 8 4 0 7 1 3 2 6 3 5 6 7 11 10 8 6 5 3 3 2 3 4 4 1 1 2 1 1 3 7 10 9 7 5 5 6 8 7 8 8 9 8 8 8 10 9
10 9 9 8 6 5 4 5 5 5 6 9 12 12 11 8 5 4 5 4 4 2 1 3 8 11 5 20 4 8 7 8 8 11 8 10 6 8 6 5 11 14 7 7 3 6 1 3 2 5 11 9 10 9 6 7 10 12 12 8 4 8 5 6 4 1 1 1 2 3 5 7 10 11 10 1 3 6 7 3 6 8 7 8 9 9 8 10
7 7 8 8 6 4 3 4 5 4 8 6 7 5 2 4 2 2 1 5 5 8 7 5 12 2 10 15 6 3 6 7 12 2 1 4 13 11 8 8 3 2 11 11 6 8 4 10 12 13 11 11 10 10 8 10 10 4 3 5 5 6 2 3 3 1 0 1 5 7 6 7 9 10 12 3 2 2 5 7 7 7 8 9 9 9 10 10
8 8 7 5 6 4 3 3 4 4 8 6 6 5 5 5 7 7 5 4 5 7 8 15 7 5 5 4 8 16 12 3 4 11 9 3 12 19 6 11 12 9 10 10 10 0 2 9 12 7 8 12 10 6 7 6 4 7 6 4 2 4 5 4 3 1 1 2 3 1 3 9 12 12 13 5 4 9 9 8 8 9 9 8 8 11 12 15
7 6 5 6 5 5 4 3 3 5 9 6 5 5 2 1 1 0 6 4 4 5 9 16 4 5 1 4 11 13 7 5 4 5 1 2 15 17 8 12 16 15 7 7 8 6 9 14 8 6 9 9 6 7 7 9 5 3 5 4 3 4 3 6 2 2 1 2 8 0 3 9 10 12 12 7 8 7 8 9 11 10 9 9 9 12 13 7
6 6 6 6 5 5 4 4 4 5 5 4 5 4 0 2 1 2 1 2 1 5 10 10 9 4 6 2 5 7 11 11 13 9 11 3 16 11 15 12 14 9 7 13 15 11 10 8 9 8 10 11 4 6 8 6 5 6 5 5 7 3 5 4 2 0 1 1 2 1 4 9 9 9 13 12 8 7 9 10 12 8 11 11 14 12 9 11
5 6 6 6 6 5 8 5 4 3 2 4 6 5 2 2 3 7 2 3 3 4 5 7 9 5 6 5 4 10 16 8 12 14 6 9 15 10 14 15 13 11 13 14 13 14 5 5 7 12 13 15 13 8 11 9 7 2 7 4 5 3 3 4 1 1 2 1 1 2 6 9 7 9 8 6 2 5 8 5 7 7 8 10 5 5 9 14
6 6 6 5 5 7 9 12 3 2 3 4 2 2 1 3 2 3 4 2 3 1 2 4 5 3 6 1 5 7 8 1 6 12 13 16 14 11 10 7 7 10 14 13 4 7 6 7 7 9 7 7 9 7 8 10 7 3 3 6 7 5 4 2 0 1 1 4 1 1 4 9 5 9 11 7 2 4 4 5 9 11 9 8 10 13 11 10
7 7 7 6 7 9 10 4 1 3 3 2 3 5 3 3 2 3 2 2 6 4 4 9 7 8 7 4 3 7 8 10 1 6 13 10 6 6 7 5 2 15 15 13 9 3 4 2 10 13 12 10 11 10 8 9 7 6 7 8 9 8 6 4 1 3 2 4 1 1 10 8 5 5 6 6 6 10 7 4 8 8 8 7 10 12 12 12
8 6 7 7 8 11 5 1 3 6 2 2 4 5 4 6 2 2 4 1 8 7 9 5 8 2 6 8 11 12 13 8 3 10 5 4 13 3 14 10 3 3 3 4 1 7 4 4 6 6 9 10 7 9 6 9 9 6 3 11 5 7 6 4 3 3 3 2 2 2 1 4 10 10 5 5 4 8 9 8 8 10 10 10 10 12 12 12
9 8 6 8 8 8 5 3 5 3 3 1 5 8 7 7 5 3 1 5 7 11 9 9 5 4 4 9 16 13 4 19 11 10 9 1 2 1 3 15 13 15 9 7 16 3 11 7 10 10 7 8 13 8 8 10 8 4 4 11 8 8 5 5 3 2 0 4 8 2 1 3 7 8 5 1 11 10 10 9 8 9 11 12 11 12 13 13
10 9 6 6 6 8 3 3 3 2 2 5 7 6 7 9 5 3 4 5 0 3 2 11 2 9 4 12 13 7 4 8 6 8 5 2 2 2 10 15 9 14 3 4 10 1 1 11 14 13 10 13 5 7 13 12 8 2 6 5 6 6 5 3 2 1 2 1 6 3 1 4 9 5 3 2 4 12 10 10 10 10 11 10 11 12 12 9
9 9 8 4 2 0 0 1 2 1 4 3 7 8 10 9 6 6 7 8 3 1 1 2 11 14 14 14 7 4 15 1 4 4 4 4 1 4 4 5 10 13 5 6 7 2 1 4 1 6 11 4 6 3 3 7 4 7 8 9 5 5 3 4 4 3 2 4 5 5 6 3 8 5 9 9 9 10 10 7 7 7 7 9 10 11 11 9
10 11 10 9 2 2 3 1 3 1 5 5 5 10 7 3 5 7 11 2 5 3 5 8 8 19 20 18 8 2 11 6 10 17 6 1 2 3 11 11 8 7 7 3 5 2 3 4 5 2 2 4 5 5 6 1 11 10 3 6 8 3 2 3 2 2 2 6 6 3 4 7 9 4 7 8 3 4 9 12 14 12 12 11 9 10 9 5
9 10 12 9 4 2 4 1 4 5 7 8 8 8 8 9 1 11 3 0 5 6 11 7 11 15 22 16 6 13 11 8 12 16 16 10 10 15 16 14 12 8 6 10 7 2 4 5 2 3 4 11 5 10 2 2 3 5 8 8 9 2 3 2 0 3 7 5 1 1 1 1 18 6 6 4 9 8 7 8 9 10 11 10 7 3 4 5
9 9 12 7 7 2 1 1 2 6 8 9 7 6 5 6 11 8 6 3 2 5 6 14 12 16 20 18 6 7 9 15 12 14 18 12 13 11 13 11 16 7 14 9 7 5 1 1 2 2 2 6 12 14 6 4 4 8 9 8 8 6 4 5 4 1 5 4 3 0 1 6 4 5 12 15 14 13 10 9 9 7 8 8 4 1 4 6
9 9 5 5 6 5 2 2 3 5 7 6 6 5 6 10 7 13 14 5 2 7 9 9 18 16 22 14 15 14 4 1 17 13 17 12 11 12 6 5 16 5 4 11 11 11 7 1 10 8 5 4 7 11 14 8 10 10 3 10 8 8 6 11 8 12 8 5 1 3 2 8 2 4 1 8 8 7 4 5 5 7 9 9 5 6 7 8
9 6 4 2 3 6 5 3 2 3 5 7 5 8 13 8 6 9 13 7 1 5 1 8 19 18 13 10 11 17 5 7 12 16 14 16 12 12 16 15 18 5 7 16 4 3 18 5 3 0 3 6 14 2 6 11 8 3 4 5 4 10 4 6 3 3 2 3 0 2 7 3 5 3 7 6 6 6 6 7 5 10 7 3 7 8 8 8
6 2 4 3 4 5 8 6 4 3 4 5 6 9 12 7 7 5 6 5 2 3 3 9 13 16 13 8 8 16 2 5 15 10 8 16 16 18 17 12 17 15 17 16 9 9 2 4 2 5 4 4 5 3 1 9 11 7 6 11 4 2 9 6 2 1 4 3 8 2 8 7 7 8 13 4 1 6 5 5 7 10 6 4 7 10 8 4
1 3 4 3 3 7 8 7 5 6 4 5 7 9 9 3 3 6 4 13 7 6 6 12 11 12 12 10 9 13 4 7 15 12 8 9 9 8 11 5 8 8 11 9 3 1 14 5 2 2 4 2 0 0 6 1 4 8 6 10 1 2 6 4 3 2 2 5 7 3 11 4 1 11 3 4 7 10 7 10 4 4 2 4 8 8 8 7
2 2 6 5 8 11 10 9 8 5 5 7 9 10 2 6 4 4 0 7 10 13 6 9 1 4 9 12 11 9 11 13 12 6 9 13 3 11 13 10 12 12 11 2 6 4 9 6 1 2 1 2 1 5 3 1 3 10 8 5 9 5 7 2 5 2 5 3 4 4 3 6 9 10 1 1 7 12 13 5 1 5 4 6 8 9 7 7
2 1 5 9 13 13 12 12 9 9 6 8 9 11 7 7 2 9 4 8 6 10 9 5 2 2 4 12 12 9 16 12 14 10 13 7 5 13 17 12 12 12 7 5 4 4 4 8 1 2 3 2 1 3 12 7 2 2 3 6 0 1 1 6 6 3 6 5 1 7 4 9 7 8 8 7 6 10 9 6 7 9 9 8 7 7 6 5
4 2 8 11 18 15 15 12 9 10 9 13 9 9 3 8 7 6 10 9 8 12 7 4 2 8 5 2 17 14 12 12 19 10 11 11 7 10 21 11 8 12 9 2 4 2 3 3 6 1 2 2 4 6 13 12 10 4 6 7 2 0 2 5 1 3 4 5 5 1 5 6 7 7 11 16 14 11 10 8 8 5 5 6 7 7 6 4
3 3 2 18 17 17 15 13 10 10 10 8 11 12 15 8 3 9 10 11 6 8 9 9 3 7 7 6 7 6 12 14 13 12 10 10 12 9 13 18 13 15 6 5 7 4 5 2 11 6 5 8 3 2 2 9 9 7 8 9 8 7 5 10 9 3 2 4 3 5 10 3 7 5 10 8 8 8 7 5 2 2 6 8 6 6 6 6
5 8 5 14 20 22 16 13 7 9 7 13 14 10 7 11 8 10 10 10 12 7 3 6 11 5 10 11 10 12 9 13 14 11 9 15 16 9 12 16 11 16 17 11 10 1 6 4 10 6 5 5 2 2 2 1 2 5 7 8 7 4 5 3 9 6 3 0 6 3 0 9 7 5 7 9 4 3 4 1 1 3 6 5 7 8 6 7
8 12 4 15 26 22 17 10 11 12 10 10 10 14 15 9 9 9 12 10 10 4 4 7 8 6 5 7 10 7 12 11 20 17 13 16 20 12 9 23 20 17 10 3 8 5 9 6 7 3 2 3 2 1 1 1 3 2 5 2 8 12 6 5 2 5 8 2 2 1 2 9 4 2 4 5 4 4 1 1 1 5 7 7 6 6 5 6
5 9 4 5 17 23 15 11 12 12 10 9 15 16 15 12 9 9 14 16 11 6 6 4 9 14 7 4 8 15 12 6 10 8 6 2 7 2 15 19 25 13 16 14 16 11 5 3 10 7 3 1 2 2 2 2 1 5 6 4 5 5 4 2 4 1 3 10 7 7 8 9 4 3 3 2 4 7 3 3 5 5 6 7 6 6 5 5
1 2 3 5 8 6 12 11 13 13 14 15 14 16 15 12 12 13 13 15 13 10 6 9 7 10 8 13 11 9 16 9 9 12 6 4 4 0 15 19 23 17 3 7 8 6 6 7 10 12 15 14 11 14 17 17 14 2 1 4 2 7 8 6 6 1 4 3 10 7 13 4 3 4 3 3 3 5 3 6 5 7 7 7 6 6 5 4
7 7 6 9 8 9 9 4 10 14 14 15 16 18 19 16 11 14 17 17 19 14 13 5 9 14 13 15 14 13 14 4 3 6 9 5 2 3 9 21 21 11 10 15 14 7 4 4 6 11 15 16 8 4 5 13 5 7 2 8 4 2 4 4 5 3 13 4 7 14 15 2 2 4 2 4 2 8 3 2 5 7 7 8 7 7 5 5
3 9 6 6 8 13 13 13 12 11 16 18 14 11 19 23 14 11 20 12 18 18 11 14 8 13 13 21 16 16 19 6 4 8 2 6 1 2 7 17 14 12 19 13 15 7 4 5 11 11 11 5 5 4 6 15 11 8 11 10 10 10 8 8 9 16 7 10 10 18 16 8 10 5 7 6 5 6 6 5 6 6 7 7 4 2 5 7
7 7 7 8 6 9 16 15 18 16 15 19 18 14 22 25 22 16 13 17 12 19 14 11 14 14 16 20 16 12 13 4 9 12 7 0 5 6 8 5 12 14 20 8 14 9 8 10 5 5 5 3 2 11 10 10 13 14 13 13 14 15 13 16 19 20 15 13 21 14 10 14 13 10 11 7 7 7 6 7 7 4 4 6 3 3 5 7
8 0 3 8 9 9 14 16 24 26 28 26 14 20 20 27 29 21 12 14 15 16 21 14 18 16 17 20 21 15 20 12 9 7 10 10 15 14 11 4 5 11 15 9 13 6 8 5 7 8 5 4 2 7 5 13 6 11 14 17 17 16 18 21 24 22 17 17 25 4 6 13 7 10 10 11 7 6 5 3 5 4 6 4 1 4 6 8
8 7 6 6 9 15 17 17 19 24 23 27 20 22 21 26 29 23 15 18 17 18 18 19 16 18 18 19 16 16 21 22 24 22 18 23 14 11 15 20 18 16 17 14 9 4 13 6 14 5 6 2 3 3 2 5 10 10 9 14 17 20 23 27 26 20 13 18 20 12 6 13 8 8 6 1 1 2 5 7 8 9 7 6 5 5 8 8
5 3 2 5 13 15 15 17 16 23 20 21 23 21 21 29 31 28 20 16 22 18 20 27 20 19 20 20 21 22 24 26 24 27 23 25 22 16 16 7 17 18 16 10 8 2 9 3 6 7 9 2 2 4 3 5 3 7 11 13 17 22 24 23 18 9 7 19 20 10 11 21 4 7 4 4 3 6 10 9 7 7 10 7 6 8 9 8
6 5 3 6 14 15 16 17 19 18 23 21 21 24 20 30 28 28 18 18 23 22 23 27 24 19 17 24 27 28 26 19 9 9 15 7 6 4 5 6 16 19 13 11 2 9 6 8 9 9 10 1 2 4 9 9 7 2 9 23 29 21 10 5 11 13 20 18 9 11 25 1 9 10 8 8 6 8 8 8 10 13 11 6 9 10 9 8
Wind_Direction
214 211 209 212 219 221 218 222 211 219 237 239 270 242 210 191 186 185 185 186 184 176 181 181 177 176 177 170 145 150 173 220 302 248 177 225 201 309 234 59 134 138 137 110 104 97 58 76 100 343 65 53 304 125 233 65 53 67 95 112 163 191 155 198 178 188 172 76 342 118 206 69 187 222 267 80 35 61 31 207 310 27 263 255 275 288 146 132
213 212 213 210 215 220 217 223 220 220 227 237 232 325 243 200 186 187 188 186 183 177 179 178 176 168 164 153 131 129 125 158 252 256 230 121 219 290 308 187 145 143 125 111 138 140 127 131 146 128 122 66 295 66 328 102 87 98 127 110 207 174 223 151 209 216 116 271 263 274 257 176 243 141 220 130 273 75 110 257 360 292 302 20 69 130 141 142
211 210 210 203 214 216 217 217 221 217 220 235 232 253 337 227 188 185 186 186 186 180 178 180 172 166 160 151 137 125 104 20 312 246 237 174 225 248 272 233 174 163 152 150 181 153 162 170 169 117 360 104 355 164 58 198 73 238 125 178 228 205 243 228 209 254 224 174 331 326 46 156 219 169 123 215 155 71 201 200 258 226 216 189 150 149 151 151
212 210 202 208 216 219 221 215 215 222 217 246 239 229 261 295 201 182 186 187 187 181 177 179 171 164 158 149 133 138 87 36 241 237 221 188 200 228 245 232 195 156 77 64 134 112 80 93 90 96 80 75 296 37 154 195 128 206 110 171 199 172 116 215 177 218 224 186 180 150 280 149 251 196 154 169 125 239 253 226 186 202 198 176 168 162 161 159
208 210 203 199 212 220 222 219 216 207 210 224 234 225 236 279 220 188 186 187 186 181 173 170 170 161 154 142 141 125 92 79 247 225 170 178 190 203 224 220 207 165 113 135 84 91 118 127 109 47 82 147 356 45 277 52 169 98 192 186 142 143 107 234 214 175 156 221 118 108 132 221 102 111 168 161 193 221 215 230 225 220 171 157 167 172 168 169
204 203 203 197 201 214 222 222 218 210 200 206 229 230 206 213 237 194 188 183 183 179 168 166 161 161 149 143 146 144 146 206 48 210 158 176 170 190 204 196 206 141 129 106 111 129 117 83 107 119 78 89 186 166 214 154 231 144 316 192 204 193 146 227 195 202 126 325 159 141 218 78 173 211 188 181 215 224 234 236 215 187 165 170 157 160 172 174
198 195 191 193 202 206 208 212 220 213 197 194 217 211 186 164 253 206 184 184 179 174 172 169 162 158 150 141 140 162 187 237 348 276 176 161 173 179 183 173 153 180 136 104 128 143 153 126 102 163 113 65 264 108 176 123 343 105 183 162 210 188 198 188 227 148 161 152 228 204 74 182 170 220 143 200 230 179 298 240 227 172 144 151 157 173 175 183
192 189 185 184 192 200 191 196 221 227 214 186 192 188 177 170 211 219 183 184 179 172 169 168 163 158 143 143 139 188 195 231 217 290 180 155 166 168 165 155 166 166 164 161 157 151 137 140 158 143 83 155 207 133 204 87 344 172 184 184 161 154 235 225 254 292 171 225 254 130 173 244 192 187 103 240 230 242 4 78 121 132 141 155 163 179 187 189
183 185 181 173 171 181 179 188 170 240 230 203 168 169 164 154 153 210 188 185 180 172 169 164 162 159 154 145 172 168 212 219 144 168 179 157 163 156 139 156 180 169 182 151 168 155 138 209 137 178 211 123 153 111 201 137 274 202 199 152 132 206 263 241 24 303 210 274 168 127 239 284 239 177 244 243 220 202 140 85 117 136 149 168 182 183 182 188
188 181 177 171 160 169 176 161 174 181 215 212 181 167 168 160 133 56 225 180 175 165 165 164 161 159 161 162 170 204 215 211 68 112 146 159 157 154 173 168 173 166 142 173 152 149 176 180 158 179 125 66 138 145 182 251 222 125 122 161 163 189 4 115 122 216 243 252 198 172 264 175 316 213 269 296 213 148 116 118 137 154 177 186 183 189 191 186
187 184 172 162 158 165 173 168 170 161 183 206 182 173 172 161 135 135 22 234 181 176 159 161 165 161 177 180 183 209 329 197 169 131 141 157 151 160 179 168 176 163 151 162 170 180 156 141 157 111 23 207 102 124 127 225 125 83 139 87 329 313 251 229 123 293 64 243 209 149 131 292 310 83 241 199 116 182 148 155 165 180 185 191 194 193 196 201
202 188 174 166 156 164 179 172 162 141 111 245 204 172 165 158 152 152 153 328 215 179 164 167 162 168 176 190 211 198 348 97 169 138 142 151 163 170 164 178 179 171 151 166 195 171 151 151 127 93 177 129 127 115 253 216 80 141 137 151 300 6 262 43 160 180 149 248 159 165 78 340 232 232 258 351 129 130 149 168 189 195 199 196 196 194 196 205
196 185 185 176 160 165 176 174 161 138 122 72 292 199 171 160 158 150 147 196 256 195 180 168 157 169 175 202 213 230 70 130 156 132 129 138 115 113 149 161 173 172 175 164 178 187 185 142 131 81 99 108 155 139 172 87 39 113 46 128 21 5 315 242 144 281 144 223 165 170 263 265 238 239 352 315 126 105 138 189 198 205 201 203 198 199 206 190
190 185 178 185 162 159 172 174 163 144 120 104 257 257 165 164 158 154 162 179 220 213 182 167 153 159 190 231 122 199 66 111 108 135 142 133 127 105 104 106 123 140 170 151 131 152 136 96 101 111 118 120 153 215 85 353 23 139 229 59 180 99 250 264 166 156 151 178 201 137 213 280 271 264 276 341 286 171 191 209 207 206 206 201 200 206 208 210
187 167 172 179 157 154 160 173 166 154 143 148 198 185 183 171 164 166 166 181 194 224 195 161 158 149 206 218 291 276 112 80 148 172 151 132 130 95 114 118 91 86 83 111 134 145 127 113 104 115 132 287 108 84 54 43 6 38 101 279 335 158 277 283 252 190 173 244 204 125 264 231 258 278 341 336 360 308 239 220 218 213 209 203 201 209 214 217
175 169 173 175 170 151 152 156 167 159 150 150 178 136 138 129 109 123 135 66 31 358 231 164 160 174 155 211 213 102 126 167 200 162 192 144 150 162 150 114 112 82 104 39 82 123 158 140 149 159 116 56 93 111 87 75 347 5 124 180 205 149 250 344 272 313 294 123 360 185 210 320 294 234 352 311 143 225 277 275 257 253 236 217 216 215 218 223
184 175 180 181 182 183 153 153 151 142 144 114 155 150 147 131 108 97 99 99 93 51 310 245 161 167 192 252 12 167 201 179 102 101 179 182 155 132 119 115 103 82 76 67 101 118 186 126 241 87 55 134 159 132 107 50 116 166 357 155 205 182 195 226 298 318 25 86 191 343 205 233 246 266 238 293 173 165 221 248 253 250 242 231 226 224 222 221
185 177 177 172 189 188 163 146 142 136 124 127 125 137 141 105 106 99 83 89 79 57 289 281 191 146 210 3 179 201 175 128 140 135 117 64 120 139 139 128 112 116 108 85 319 158 258 133 219 172 125 152 156 161 172 193 160 172 171 178 259 277 216 220 172 221 71 32 178 19 233 271 280 276 262 224 175 169 224 230 238 240 235 235 231 228 227 225
188 169 171 175 178 185 154 129 138 116 113 101 94 103 124 82 72 75 112 137 115 81 293 221 188 176 208 196 191 71 131 133 91 130 157 129 145 111 66 71 130 137 149 151 236 157 269 81 75 139 186 172 182 183 179 161 164 178 179 184 153 166 208 210 243 278 183 134 192 197 216 241 252 268 270 110 221 193 239 277 267 252 247 241 233 236 231 230
172 174 167 175 178 170 148 132 133 138 130 120 100 102 35 138 141 126 89 164 209 191 199 223 203 136 57 99 102 107 77 113 124 339 83 150 133 131 120 127 85 102 155 182 162 198 148 172 187 194 180 170 174 181 169 177 172 143 96 94 158 169 281 281 262 257 136 87 232 211 226 233 254 254 264 203 151 242 263 257 249 256 254 242 237 235 236 235
160 178 166 161 167 164 161 138 136 136 136 113 133 129 181 160 146 211 152 227 225 215 212 255 249 2 346 326 118 130 122 358 148 163 180 222 147 141 176 141 163 178 198 168 154 247 170 185 210 187 161 161 168 136 104 94 95 139 144 131 139 175 210 233 196 6 321 157 289 332 213 243 242 253 258 219 194 249 239 237 243 246 245 253 248 244 234 235
152 153 148 151 157 157 143 141 147 130 119 136 154 173 258 238 125 93 124 225 221 172 193 247 345 331 324 276 176 149 126 106 120 146 93 120 163 162 199 170 175 184 163 129 115 151 193 207 181 154 139 138 135 135 139 143 134 120 150 165 141 244 243 281 270 320 301 83 258 342 249 258 249 256 263 250 213 235 230 211 229 224 235 240 239 245 247 251
152 152 155 139 146 146 158 138 79 113 115 137 165 201 165 229 248 326 162 214 221 176 192 211 238 219 261 24 289 128 139 169 167 171 171 167 169 189 157 167 182 152 146 170 169 164 190 218 163 151 130 133 123 137 138 123 128 135 99 131 202 220 143 269 294 10 357 148 275 185 304 279 272 251 253 256 209 232 234 223 237 212 227 227 232 228 240 243
143 138 139 154 139 146 106 81 60 51 126 158 190 180 195 229 19 0 90 208 242 193 165 198 208 208 212 182 242 180 168 177 154 182 170 164 175 143 158 169 163 151 176 189 185 174 189 140 143 147 161 157 160 163 145 149 172 206 162 152 155 144 226 150 219 323 326 327 34 289 300 283 238 262 267 251 241 255 261 260 265 259 238 249 289 294 229 236
126 124 130 121 133 115 123 133 100 196 136 157 215 203 53 55 91 68 78 323 246 248 99 83 139 207 197 69 328 209 164 58 205 160 173 171 158 146 174 148 134 181 170 188 153 139 120 164 129 132 145 147 131 153 174 135 149 174 248 177 178 172 163 226 11 76 9 284 340 108 308 259 257 240 240 246 318 235 256 245 249 248 240 239 248 251 252 248
129 122 119 131 141 122 121 113 286 121 124 192 170 181 158 103 112 159 125 155 263 175 136 202 117 237 112 216 151 195 137 195 153 159 157 188 172 160 133 165 154 176 175 169 171 168 169 211 159 162 158 161 166 175 192 158 159 146 234 177 169 163 148 137 169 118 261 215 291 39 218 271 326 292 254 247 239 249 273 250 262 262 255 233 232 241 245 241
140 139 138 145 156 129 90 228 201 120 130 270 152 147 150 118 138 96 135 180 266 158 159 144 150 256 158 173 178 147 193 164 109 125 173 225 176 291 162 162 116 24 144 142 69 219 124 162 132 129 141 159 162 184 210 156 133 206 231 160 126 117 131 160 111 133 230 257 300 34 109 256 284 258 248 212 272 276 281 269 250 255 255 246 238 238 240 241
152 158 158 160 173 144 168 135 121 151 181 219 146 137 131 117 98 45 33 202 245 118 175 154 193 135 193 155 170 189 357 132 138 188 165 232 97 306 164 174 173 162 177 169 185 3 148 162 162 157 163 163 193 191 149 162 148 219 190 151 151 147 159 124 110 126 191 38 282 344 281 301 232 275 302 259 264 266 262 264 257 241 243 247 243 242 240 238
163 159 172 185 179 159 121 128 148 149 211 124 126 127 121 111 87 133 189 225 57 95 265 140 104 120 101 151 195 163 86 171 155 137 125 27 312 188 176 181 154 144 91 208 179 159 297 178 181 159 156 195 174 145 160 159 141 279 117 75 91 85 74 117 118 113 329 103 260 204 186 238 276 262 270 332 248 244 243 248 251 237 233 234 240 249 245 240
168 160 160 164 78 180 289 36 103 223 55 73 132 117 105 114 101 211 194 240 68 227 60 176 159 164 143 175 175 162 152 316 77 95 114 149 202 50 3 72 127 137 143 26 89 197 159 3 76 138 197 170 113 24 162 153 102 139 105 97 72 58 87 50 73 93 61 260 237 197 201 156 299 221 210 187 218 206 222 251 255 257 251 246 239 241 245 238
174 166 169 132 147 197 112 326 140 138 69 91 91 107 137 92 186 187 218 225 67 213 129 171 146 144 152 180 150 267 165 124 144 142 143 82 47 103 127 64 29 42 62 52 54 36 58 109 151 262 77 123 98 87 9 24 143 136 110 131 111 26 28 42 11 37 178 262 261 262 183 169 223 292 266 239 274 227 210 211 219 229 233 232 229 230 242 259
186 181 174 151 201 131 141 196 165 134 122 126 110 152 157 158 228 209 176 29 184 186 156 137 156 149 161 167 145 176 161 124 166 155 159 165 161 158 180 159 156 129 156 172 171 70 73 185 255 325 275 148 142 104 337 59 185 111 125 137 141 179 92 278 46 246 223 218 231 226 174 69 242 229 264 269 248 257 217 222 231 225 228 231 241 258 253 254
186 189 190 173 153 150 86 227 71 123 136 135 138 168 177 196 206 205 248 106 260 138 197 148 153 161 155 153 139 172 164 166 168 172 156 171 172 192 179 167 165 138 165 179 97 89 305 303 331 294 108 268 156 158 161 130 217 137 147 154 136 137 159 216 208 343 302 280 275 310 113 278 278 294 223 236 238 226 230 226 235 236 250 262 248 268 293 278
194 190 197 171 168 145 165 263 48 108 125 128 145 194 189 202 223 170 217 193 255 335 172 154 151 152 163 162 165 154 112 282 170 169 161 163 181 170 163 141 174 137 81 149 151 172 117 302 239 162 214 186 183 182 176 149 149 181 125 166 177 167 167 192 178 196 211 187 206 287 100 235 113 246 285 252 265 301 280 251 244 251 253 262 295 292 276 281
202 201 157 175 160 149 164 154 135 128 115 140 170 209 213 204 184 185 210 187 21 302 360 165 147 158 169 167 161 175 146 159 198 156 173 159 192 180 177 180 192 134 143 145 250 83 187 164 314 200 281 169 178 181 123 126 134 208 175 70 134 218 120 155 203 123 168 133 30 214 212 200 179 258 283 232 264 294 284 271 263 269 252 307 298 273 256 252
202 221 148 196 151 158 152 149 170 105 116 174 192 218 220 196 205 157 218 143 164 201 232 166 157 156 168 150 172 181 276 133 181 159 174 181 179 184 189 177 183 176 164 171 154 169 127 241 326 314 49 139 163 141 31 159 164 195 116 201 208 100 92 110 51 13 96 53 254 148 296 279 294 300 265 256 15 281 286 267 252 255 285 316 285 281 270 243
120 115 205 161 176 155 155 157 149 109 137 172 227 228 220 259 272 183 180 188 160 127 185 175 182 160 161 156 162 185 151 111 170 166 156 183 193 212 183 202 178 187 201 134 136 260 160 147 353 73 142 341 206 233 144 28 153 92 186 211 165 122 113 125 167 348 71 177 256 113 237 285 43 280 326 291 236 258 257 246 252 276 301 277 258 258 269 279
158 209 252 213 167 158 153 158 129 151 143 202 218 244 262 236 192 292 350 140 142 182 198 194 271 174 167 150 171 164 177 162 168 177 154 183 205 186 182 184 189 192 191 290 129 211 117 81 5 12 128 323 347 111 73 354 350 176 191 184 136 210 228 264 97 182 166 218 266 293 296 266 205 235 331 245 209 241 250 248 284 276 277 246 253 264 273 269
129 248 265 204 148 160 151 143 161 158 190 198 213 231 229 256 177 216 232 176 165 162 206 240 121 302 156 173 153 158 174 184 160 169 148 219 184 194 192 175 190 187 175 138 113 142 69 122 299 333 122 211 89 165 187 190 354 39 87 164 55 102 312 135 204 169 117 227 76 285 37 254 191 219 196 264 213 227 251 251 223 235 234 236 252 265 268 296
162 224 257 131 157 151 143 144 154 186 187 210 204 231 223 230 229 232 227 198 186 174 202 199 278 139 175 277 162 158 202 175 166 186 183 169 195 174 193 195 165 176 165 102 116 159 93 116 127 244 312 120 162 210 205 167 158 135 152 187 211 360 244 100 18 139 181 172 187 197 311 271 261 218 189 208 222 225 199 224 238 252 266 246 241 246 260 265
154 216 290 145 151 139 138 149 171 186 194 216 227 225 229 229 178 223 232 249 253 202 185 193 173 182 148 145 203 197 168 173 176 173 186 172 179 156 212 188 166 167 102 87 122 180 98 103 135 160 130 209 258 308 194 160 175 163 162 194 173 110 135 166 225 43 100 114 215 144 248 266 271 174 201 229 229 236 201 207 256 265 239 235 244 254 242 265
161 223 212 155 140 140 149 163 186 178 200 202 206 207 233 226 237 206 219 209 254 222 218 190 190 176 167 174 166 182 162 170 186 179 194 175 203 208 190 169 148 154 162 170 165 218 141 89 110 141 207 162 258 324 242 334 116 169 154 205 172 156 99 154 196 224 64 290 107 158 300 278 243 234 225 216 220 292 7 69 248 248 243 239 241 234 238 230
198 226 52 155 149 148 155 193 173 187 201 209 209 222 228 230 218 204 204 192 209 268 182 207 196 166 238 170 173 183 171 177 177 193 182 187 198 190 173 160 150 163 134 96 90 189 88 100 89 16 63 299 337 4 347 283 132 157 278 169 158 197 183 160 143 175 167 207 202 308 269 249 284 236 252 262 267 254 260 144 252 280 278 276 273 291 292 298
209 235 112 309 177 151 159 186 186 192 199 211 210 222 216 223 219 202 210 200 194 200 202 176 175 196 171 208 163 176 185 152 226 206 192 189 175 267 164 150 154 165 167 187 163 196 103 251 120 126 64 340 345 347 349 330 241 220 196 184 191 155 108 138 101 68 139 216 156 119 229 261 267 353 302 310 262 260 257 261 195 236 267 259 266 269 266 279
239 237 184 176 212 269 172 172 186 188 196 200 197 216 217 226 225 221 199 210 199 194 197 210 209 167 198 161 182 190 189 186 169 209 155 199 148 30 153 159 163 169 106 127 124 132 99 173 145 154 165 169 187 195 199 196 195 144 60 117 133 168 147 131 203 131 215 261 160 186 237 240 296 317 331 290 308 297 233 233 253 229 243 267 271 271 293 302
190 243 159 178 188 204 252 253 191 187 193 196 204 211 206 214 218 219 212 216 203 193 197 193 214 197 176 166 176 188 198 231 156 170 164 163 141 200 179 161 166 167 157 143 131 108 114 137 186 172 178 194 183 52 70 95 88 174 193 134 123 99 166 126 122 135 221 179 182 226 227 120 254 246 271 278 275 255 253 270 228 245 249 250 261 271 277 281
149 228 168 187 166 204 209 209 217 202 203 189 209 188 208 211 207 212 203 219 204 198 194 202 191 196 192 176 180 179 187 174 94 132 201 128 297 125 174 165 154 150 143 135 146 91 97 150 213 183 193 161 157 151 167 132 159 160 144 169 163 157 163 162 183 224 122 105 240 238 216 203 227 251 265 268 284 281 288 269 266 273 262 243 232 281 311 295
224 218 192 176 200 193 203 211 201 209 224 200 208 192 202 202 205 209 194 219 194 198 196 207 210 215 188 182 162 180 174 148 160 163 145 102 96 116 125 198 163 170 147 160 166 158 152 191 194 127 184 84 116 151 165 145 161 168 165 161 168 173 169 188 215 218 147 204 228 244 142 219 221 199 224 220 220 228 238 239 226 232 279 276 308 330 294 272
223 87 177 153 216 221 210 204 194 204 209 209 214 205 203 201 203 202 191 196 210 197 200 199 202 204 212 183 178 175 167 163 192 162 162 163 156 154 148 152 207 177 156 155 182 165 151 207 168 161 143 92 36 149 169 149 157 158 169 175 177 169 192 204 220 216 183 217 229 122 165 228 211 201 201 226 218 214 237 262 298 284 244 257 309 289 275 275
207 184 209 177 219 224 225 221 205 202 211 201 209 206 202 199 201 198 196 188 195 203 191 214 191 194 206 201 189 187 186 186 170 177 181 160 165 170 176 177 165 188 165 171 167 231 167 216 141 125 126 133 5 80 62 153 147 173 194 187 182 188 200 209 217 218 198 238 247 246 299 273 236 215 222 261 226 293 312 285 253 248 256 242 234 250 257 257
232 183 193 196 218 230 226 222 216 203 209 205 210 203 205 197 200 193 199 194 193 187 186 201 197 190 200 202 198 197 190 197 184 183 168 165 174 184 160 219 154 158 166 166 172 183 186 196 142 133 146 199 335 110 83 88 133 161 188 206 207 202 208 214 218 208 179 226 235 242 270 251 157 192 254 242 201 215 231 236 255 263 242 217 202 232 239 248
221 212 186 226 247 228 218 216 219 209 210 200 201 202 202 198 194 187 196 201 198 191 183 191 194 189 192 201 206 206 195 184 140 116 158 144 109 91 91 131 166 163 161 154 55 149 145 135 152 162 155 197 297 134 117 106 97 264 244 214 207 207 216 233 233 210 209 216 203 206 236 230 159 166 182 244 243 254 270 271 264 256 248 187 206 220 232 239